Year,Month,Day,Hour,Minute,Value (Times are PST for temperature in C)
2016,02,14,00,00,7.20
2016,02,14,00,01,7.20
2016,02,14,00,02,7.20
2016,02,14,00,03,7.20
2016,02,14,00,04,7.20
2016,02,14,00,05,7.20
2016,02,14,00,06,7.20
2016,02,14,00,07,7.20
2016,02,14,00,08,7.20
2016,02,14,00,09,7.20
2016,02,14,00,10,7.20
2016,02,14,00,11,7.20
2016,02,14,00,12,7.20
2016,02,14,00,13,7.20
2016,02,14,00,14,7.20
2016,02,14,00,15,7.20
2016,02,14,00,16,7.20
2016,02,14,00,17,7.20
2016,02,14,00,18,7.20
2016,02,14,00,19,7.20
2016,02,14,00,20,7.20
2016,02,14,00,21,7.20
2016,02,14,00,22,7.20
2016,02,14,00,23,7.20
2016,02,14,00,24,7.20
2016,02,14,00,25,7.20
2016,02,14,00,26,7.20
2016,02,14,00,27,7.10
2016,02,14,00,28,7.10
2016,02,14,00,29,7.10
2016,02,14,00,30,7.10
2016,02,14,00,31,7.10
2016,02,14,00,32,7.10
2016,02,14,00,33,7.10
2016,02,14,00,34,7.10
2016,02,14,00,35,7.10
2016,02,14,00,36,7.10
2016,02,14,00,37,7.10
2016,02,14,00,38,7.10
2016,02,14,00,39,7.10
2016,02,14,00,40,7.10
2016,02,14,00,41,7.10
2016,02,14,00,42,7.10
2016,02,14,00,43,7.10
2016,02,14,00,44,7.10
2016,02,14,00,45,7.10
2016,02,14,00,46,7.10
2016,02,14,00,47,7.10
2016,02,14,00,48,7.10
2016,02,14,00,49,7.10
2016,02,14,00,50,7.10
2016,02,14,00,51,7.10
2016,02,14,00,52,7.10
2016,02,14,00,53,7.10
2016,02,14,00,54,7.10
2016,02,14,00,55,7.10
2016,02,14,00,56,7.10
2016,02,14,00,57,7.10
2016,02,14,00,58,7.10
2016,02,14,00,59,7.10
2016,02,14,01,00,7.10
2016,02,14,01,01,7.10
2016,02,14,01,02,7.10
2016,02,14,01,03,7.10
2016,02,14,01,04,7.10
2016,02,14,01,05,7.20
2016,02,14,01,06,7.20
2016,02,14,01,07,7.20
2016,02,14,01,08,7.20
2016,02,14,01,09,7.20
2016,02,14,01,10,7.20
2016,02,14,01,11,7.20
2016,02,14,01,12,7.20
2016,02,14,01,13,7.20
2016,02,14,01,14,7.20
2016,02,14,01,15,7.20
2016,02,14,01,16,7.20
2016,02,14,01,17,7.20
2016,02,14,01,18,7.20
2016,02,14,01,19,7.20
2016,02,14,01,20,7.20
2016,02,14,01,21,7.20
2016,02,14,01,22,7.20
2016,02,14,01,23,7.20
2016,02,14,01,24,7.20
2016,02,14,01,25,7.20
2016,02,14,01,26,7.20
2016,02,14,01,27,7.20
2016,02,14,01,28,7.20
2016,02,14,01,29,7.20
2016,02,14,01,30,7.20
2016,02,14,01,31,7.20
2016,02,14,01,32,7.20
2016,02,14,01,33,7.20
2016,02,14,01,34,7.20
2016,02,14,01,35,7.20
2016,02,14,01,36,7.20
2016,02,14,01,37,7.20
2016,02,14,01,38,7.20
2016,02,14,01,39,7.20
2016,02,14,01,40,7.20
2016,02,14,01,41,7.20
2016,02,14,01,42,7.20
2016,02,14,01,43,7.30
2016,02,14,01,44,7.30
2016,02,14,01,45,7.30
2016,02,14,01,46,7.30
2016,02,14,01,47,7.30
2016,02,14,01,48,7.30
2016,02,14,01,49,7.30
2016,02,14,01,50,7.30
2016,02,14,01,51,7.30
2016,02,14,01,52,7.30
2016,02,14,01,53,7.30
2016,02,14,01,54,7.30
2016,02,14,01,55,7.30
2016,02,14,01,56,7.30
2016,02,14,01,57,7.30
2016,02,14,01,58,7.30
2016,02,14,01,59,7.30
2016,02,14,02,00,7.30
2016,02,14,02,01,7.30
2016,02,14,02,02,7.30
2016,02,14,02,03,7.30
2016,02,14,02,04,7.30
2016,02,14,02,05,7.40
2016,02,14,02,06,7.40
2016,02,14,02,07,7.40
2016,02,14,02,08,7.40
2016,02,14,02,09,7.40
2016,02,14,02,10,7.40
2016,02,14,02,11,7.40
2016,02,14,02,12,7.40
2016,02,14,02,13,7.40
2016,02,14,02,14,7.40
2016,02,14,02,15,7.40
2016,02,14,02,16,7.40
2016,02,14,02,17,7.40
2016,02,14,02,18,7.40
2016,02,14,02,19,7.40
2016,02,14,02,20,7.40
2016,02,14,02,21,7.40
2016,02,14,02,22,7.40
2016,02,14,02,23,7.50
2016,02,14,02,24,7.50
2016,02,14,02,25,7.50
2016,02,14,02,26,7.50
2016,02,14,02,27,7.50
2016,02,14,02,28,7.50
2016,02,14,02,29,7.50
2016,02,14,02,30,7.50
2016,02,14,02,31,7.50
2016,02,14,02,32,7.50
2016,02,14,02,33,7.50
2016,02,14,02,34,7.50
2016,02,14,02,35,7.50
2016,02,14,02,36,7.50
2016,02,14,02,37,7.50
2016,02,14,02,38,7.50
2016,02,14,02,39,7.50
2016,02,14,02,40,7.50
2016,02,14,02,41,7.50
2016,02,14,02,42,7.50
2016,02,14,02,43,7.50
2016,02,14,02,44,7.50
2016,02,14,02,45,7.50
2016,02,14,02,46,7.50
2016,02,14,02,47,7.50
2016,02,14,02,48,7.50
2016,02,14,02,49,7.50
2016,02,14,02,50,7.50
2016,02,14,02,51,7.60
2016,02,14,02,52,7.60
2016,02,14,02,53,7.60
2016,02,14,02,54,7.60
2016,02,14,02,55,7.60
2016,02,14,02,56,7.50
2016,02,14,02,57,7.60
2016,02,14,02,58,7.50
2016,02,14,02,59,7.50
2016,02,14,03,00,7.60
2016,02,14,03,01,7.60
2016,02,14,03,02,7.60
2016,02,14,03,03,7.60
2016,02,14,11,04,7.60
2016,02,14,11,05,7.60
2016,02,14,11,06,7.60
2016,02,14,11,07,7.60
2016,02,14,11,08,7.60
2016,02,14,11,09,7.60
2016,02,14,11,10,7.60
2016,02,14,11,11,7.60
2016,02,14,11,12,7.60
2016,02,14,11,13,7.60
2016,02,14,11,14,7.60
2016,02,14,11,15,7.60
2016,02,14,11,16,7.60
2016,02,14,11,17,7.60
2016,02,14,11,18,7.60
2016,02,14,11,19,7.60
2016,02,14,11,20,7.60
2016,02,14,11,21,7.60
2016,02,14,11,22,7.60
2016,02,14,11,23,7.60
2016,02,14,11,24,7.60
2016,02,14,11,25,7.60
2016,02,14,11,26,7.60
2016,02,14,11,27,7.60
2016,02,14,11,28,7.60
2016,02,14,11,29,7.60
2016,02,14,11,30,7.60
2016,02,14,11,31,7.60
2016,02,14,11,32,7.60
2016,02,14,11,33,7.60
2016,02,14,11,34,7.60
2016,02,14,11,35,7.60
2016,02,14,11,36,7.60
2016,02,14,11,37,7.60
2016,02,14,11,38,7.60
2016,02,14,11,39,7.60
2016,02,14,11,40,7.60
2016,02,14,11,41,7.60
2016,02,14,11,42,7.60
2016,02,14,11,43,7.60
2016,02,14,11,44,7.60
2016,02,14,11,45,7.60
2016,02,14,11,46,7.60
2016,02,14,11,47,7.70
2016,02,14,11,48,7.70
2016,02,14,11,49,7.70
2016,02,14,11,50,7.70
2016,02,14,11,51,7.70
2016,02,14,11,52,7.70
2016,02,14,11,53,7.70
2016,02,14,11,54,7.70
2016,02,14,11,55,7.70
2016,02,14,11,56,7.70
2016,02,14,11,57,7.70
2016,02,14,11,58,7.70
2016,02,14,11,59,7.70
2016,02,14,12,00,7.70
2016,02,14,12,01,7.70
2016,02,14,12,02,7.70
2016,02,14,12,03,7.70
2016,02,14,12,04,7.70
2016,02,14,12,05,7.70
2016,02,14,12,06,7.70
2016,02,14,12,07,7.70
2016,02,14,12,08,7.70
2016,02,14,12,09,7.70
2016,02,14,12,10,7.80
2016,02,14,12,11,7.80
2016,02,14,12,12,7.70
2016,02,14,12,13,7.70
2016,02,14,12,14,7.80
2016,02,14,12,15,7.80
2016,02,14,12,16,7.80
2016,02,14,12,17,7.80
2016,02,14,12,18,7.70
2016,02,14,12,19,7.80
2016,02,14,12,20,7.70
2016,02,14,12,21,7.80
2016,02,14,12,22,7.80
2016,02,14,12,23,7.80
2016,02,14,12,24,7.80
2016,02,14,12,25,7.80
2016,02,14,12,26,7.80
2016,02,14,12,27,7.80
2016,02,14,12,28,7.80
2016,02,14,12,29,7.80
2016,02,14,12,30,7.80
2016,02,14,12,31,7.80
2016,02,14,12,32,7.80
2016,02,14,12,33,7.80
2016,02,14,12,34,7.80
2016,02,14,12,35,7.80
2016,02,14,12,36,7.80
2016,02,14,12,37,7.80
2016,02,14,12,38,7.80
2016,02,14,12,39,7.80
2016,02,14,12,40,7.80
2016,02,14,12,41,7.80
2016,02,14,12,42,7.80
2016,02,14,12,43,7.80
2016,02,14,12,44,7.80
2016,02,14,12,45,7.80
2016,02,14,12,46,7.80
2016,02,14,12,47,7.80
2016,02,14,12,48,7.80
2016,02,14,12,49,7.80
2016,02,14,12,50,7.90
2016,02,14,12,51,7.90
2016,02,14,12,52,7.90
2016,02,14,12,53,7.90
2016,02,14,12,54,7.90
2016,02,14,12,55,7.90
2016,02,14,12,56,7.90
2016,02,14,12,57,7.90
2016,02,14,12,58,7.90
2016,02,14,12,59,8.00
2016,02,14,13,00,8.00
2016,02,14,13,01,8.00
2016,02,14,13,02,8.00
2016,02,14,13,03,8.00
2016,02,14,13,04,8.00
2016,02,14,13,05,8.00
2016,02,14,13,06,8.00
2016,02,14,13,07,8.00
2016,02,14,13,08,8.00
2016,02,14,13,09,8.00
2016,02,14,13,10,8.00
2016,02,14,13,11,8.10
2016,02,14,13,12,8.10
2016,02,14,13,13,8.10
2016,02,14,13,14,8.10
2016,02,14,13,15,8.10
2016,02,14,13,16,8.10
2016,02,14,13,17,8.10
2016,02,14,13,18,8.10
2016,02,14,13,19,8.10
2016,02,14,13,20,8.10
2016,02,14,13,21,8.10
2016,02,14,13,22,8.10
2016,02,14,13,23,8.10
2016,02,14,13,24,8.10
2016,02,14,13,25,8.10
2016,02,14,13,26,8.10
2016,02,14,13,27,8.10
2016,02,14,13,28,8.10
2016,02,14,13,29,8.10
2016,02,14,13,30,8.10
2016,02,14,13,31,8.10
2016,02,14,13,32,8.10
2016,02,14,13,33,8.10
2016,02,14,13,34,8.10
2016,02,14,13,35,8.10
2016,02,14,13,36,8.10
2016,02,14,13,37,8.00
2016,02,14,13,38,8.00
2016,02,14,13,39,8.00
2016,02,14,13,40,8.00
2016,02,14,13,41,8.00
2016,02,14,13,42,8.00
2016,02,14,13,43,8.00
2016,02,14,13,44,8.00
2016,02,14,13,45,8.00
2016,02,14,13,46,8.00
2016,02,14,13,47,8.00
2016,02,14,13,48,8.00
2016,02,14,13,49,8.00
2016,02,14,13,50,8.00
2016,02,14,13,51,8.00
2016,02,14,13,52,7.90
2016,02,14,13,53,7.90
2016,02,14,13,54,7.90
2016,02,14,13,55,7.90
2016,02,14,13,56,7.90
2016,02,14,13,57,7.90
2016,02,14,13,58,7.90
2016,02,14,13,59,7.90
2016,02,14,14,00,7.90
2016,02,14,14,01,7.90
2016,02,14,14,02,7.90
2016,02,14,14,03,7.90
2016,02,14,14,04,7.90
2016,02,14,14,05,7.90
2016,02,14,14,06,7.90
2016,02,14,14,07,7.90
2016,02,14,14,08,7.90
2016,02,14,14,09,7.90
2016,02,14,14,10,7.90
2016,02,14,14,11,8.00
2016,02,14,14,12,8.00
2016,02,14,14,13,8.00
2016,02,14,14,14,8.00
2016,02,14,14,15,8.00
2016,02,14,14,16,8.00
2016,02,14,14,17,8.00
2016,02,14,14,18,8.00
2016,02,14,14,19,8.00
2016,02,14,14,20,8.00
2016,02,14,14,21,8.00
2016,02,14,14,22,8.00
2016,02,14,14,23,8.00
2016,02,14,14,24,8.00
2016,02,14,14,25,8.00
2016,02,14,14,26,8.00
2016,02,14,14,27,8.00
2016,02,14,14,28,8.00
2016,02,14,14,29,8.00
2016,02,14,14,30,8.00
2016,02,14,14,31,8.00
2016,02,14,14,32,8.00
2016,02,14,14,33,8.00
2016,02,14,14,34,8.00
2016,02,14,14,35,8.00
2016,02,14,14,36,8.00
2016,02,14,14,37,8.00
2016,02,14,14,38,8.00
2016,02,14,14,39,8.00
2016,02,14,14,40,8.00
2016,02,14,14,41,8.00
2016,02,14,14,42,8.00
2016,02,14,14,43,8.00
2016,02,14,14,44,8.00
2016,02,14,14,45,8.00
2016,02,14,14,46,8.00
2016,02,14,14,47,8.00
2016,02,14,14,48,8.00
2016,02,14,14,49,8.00
2016,02,14,14,50,8.00
2016,02,14,14,51,8.00
2016,02,14,14,52,8.00
2016,02,14,14,53,8.00
2016,02,14,14,54,8.00
2016,02,14,14,55,8.10
2016,02,14,14,56,8.10
2016,02,14,14,57,8.10
2016,02,14,14,58,8.10
2016,02,14,14,59,8.10
2016,02,14,15,00,8.10
2016,02,14,15,01,8.10
2016,02,14,15,02,8.10
2016,02,14,15,03,8.10
2016,02,14,15,04,8.10
2016,02,14,15,05,8.10
2016,02,14,15,06,8.10
2016,02,14,15,07,8.10
2016,02,14,15,08,8.10
2016,02,14,15,09,8.10
2016,02,14,15,10,8.10
2016,02,14,15,11,8.10
2016,02,14,15,12,8.10
2016,02,14,15,13,8.10
2016,02,14,15,14,8.10
2016,02,14,15,15,8.10
2016,02,14,15,16,8.10
2016,02,14,15,17,8.10
2016,02,14,15,18,8.10
2016,02,14,15,19,8.10
2016,02,14,15,20,8.10
2016,02,14,15,21,8.10
2016,02,14,15,22,8.20
2016,02,14,15,23,8.10
2016,02,14,15,24,8.20
2016,02,14,15,25,8.20
2016,02,14,15,26,8.10
2016,02,14,15,27,8.20
2016,02,14,15,28,8.20
2016,02,14,15,29,8.20
2016,02,14,15,30,8.20
2016,02,14,15,31,8.20
2016,02,14,15,32,8.20
2016,02,14,15,33,8.20
2016,02,14,15,34,8.20
2016,02,14,15,35,8.20
2016,02,14,15,36,8.20
2016,02,14,15,37,8.20
2016,02,14,15,38,8.20
2016,02,14,15,39,8.20
2016,02,14,15,40,8.20
2016,02,14,15,41,8.20
2016,02,14,15,42,8.20
2016,02,14,15,43,8.20
2016,02,14,15,44,8.20
2016,02,14,15,45,8.20
2016,02,14,15,46,8.20
2016,02,14,15,47,8.20
2016,02,14,15,48,8.20
2016,02,14,15,49,8.30
2016,02,14,15,50,8.30
2016,02,14,15,51,8.30
2016,02,14,15,52,8.30
2016,02,14,15,53,8.30
2016,02,14,15,54,8.30
2016,02,14,15,55,8.30
2016,02,14,15,56,8.30
2016,02,14,15,57,8.30
2016,02,14,15,58,8.30
2016,02,14,15,59,8.30
2016,02,14,16,00,8.30
2016,02,14,16,01,8.30
2016,02,14,16,02,8.30
2016,02,14,16,03,8.30
2016,02,14,16,04,8.30
2016,02,14,16,05,8.30
2016,02,14,16,06,8.30
2016,02,14,16,07,8.30
2016,02,14,16,08,8.30
2016,02,14,16,09,8.30
2016,02,14,16,10,8.20
2016,02,14,16,11,8.20
2016,02,14,16,12,8.30
2016,02,14,16,13,8.30
2016,02,14,16,14,8.30
2016,02,14,16,15,8.30
2016,02,14,16,16,8.30
2016,02,14,16,17,8.30
2016,02,14,16,18,8.20
2016,02,14,16,19,8.20
2016,02,14,16,20,8.20
2016,02,14,16,21,8.20
2016,02,14,16,22,8.20
2016,02,14,16,23,8.20
2016,02,14,16,24,8.20
2016,02,14,16,25,8.20
2016,02,14,16,26,8.20
2016,02,14,16,27,8.20
2016,02,14,16,28,8.20
2016,02,14,16,29,8.20
2016,02,14,16,30,8.20
2016,02,14,16,31,8.20
2016,02,14,16,32,8.20
2016,02,14,16,33,8.20
2016,02,14,16,34,8.20
2016,02,14,16,35,8.30
2016,02,14,16,36,8.30
2016,02,14,16,37,8.30
2016,02,14,16,38,8.30
2016,02,14,16,39,8.30
2016,02,14,16,40,8.30
2016,02,14,16,41,8.30
2016,02,14,16,42,8.40
2016,02,14,16,43,8.40
2016,02,14,16,44,8.50
2016,02,14,16,45,8.50
2016,02,14,16,46,8.50
2016,02,14,16,47,8.60
2016,02,14,16,48,8.60
2016,02,14,16,49,8.60
2016,02,14,16,50,8.70
2016,02,14,16,51,8.70
2016,02,14,16,52,8.70
2016,02,14,16,53,8.70
2016,02,14,16,54,8.70
2016,02,14,16,55,8.80
2016,02,14,16,56,8.80
2016,02,14,16,57,8.80
2016,02,14,16,58,8.80
2016,02,14,16,59,8.80
2016,02,14,17,00,8.80
2016,02,14,17,01,8.90
2016,02,14,17,02,8.90
2016,02,14,17,03,8.90
2016,02,14,17,04,8.90
2016,02,14,17,05,8.90
2016,02,14,17,06,8.90
2016,02,14,17,07,8.90
2016,02,14,17,08,8.90
2016,02,14,17,09,8.90
2016,02,14,17,10,8.90
2016,02,14,17,11,8.90
2016,02,14,17,12,8.90
2016,02,14,17,13,8.90
2016,02,14,17,14,8.90
2016,02,14,17,15,8.90
2016,02,14,17,16,8.90
2016,02,14,17,17,8.90
2016,02,14,17,18,8.90
2016,02,14,17,19,8.90
2016,02,14,17,20,8.90
2016,02,14,17,21,8.90
2016,02,14,17,22,8.90
2016,02,14,17,23,8.90
2016,02,14,17,24,8.90
2016,02,14,17,25,8.90
2016,02,14,17,26,8.90
2016,02,14,17,27,8.90
2016,02,14,17,28,8.90
2016,02,14,17,29,8.90
2016,02,14,17,30,8.90
2016,02,14,17,31,8.90
2016,02,14,17,32,8.90
2016,02,14,17,33,8.90
2016,02,14,17,34,8.80
2016,02,14,17,35,8.80
2016,02,14,17,36,8.80
2016,02,14,17,37,8.80
2016,02,14,17,38,8.80
2016,02,14,17,39,8.80
2016,02,14,17,40,8.80
2016,02,14,17,41,8.80
2016,02,14,17,42,8.70
2016,02,14,17,43,8.70
2016,02,14,17,44,8.70
2016,02,14,17,45,8.70
2016,02,14,17,46,8.70
2016,02,14,17,47,8.70
2016,02,14,17,48,8.70
2016,02,14,17,49,8.70
2016,02,14,17,50,8.70
2016,02,14,17,51,8.70
2016,02,14,17,52,8.70
2016,02,14,17,53,8.70
2016,02,14,17,54,8.70
2016,02,14,17,55,8.70
2016,02,14,17,56,8.70
2016,02,14,17,57,8.60
2016,02,14,17,58,8.70
2016,02,14,17,59,8.60
2016,02,14,18,00,8.60
2016,02,14,18,01,8.60
2016,02,14,18,02,8.60
2016,02,14,18,03,8.60
2016,02,14,18,04,8.60
2016,02,14,18,05,8.60
2016,02,14,18,06,8.60
2016,02,14,18,07,8.60
2016,02,14,18,08,8.50
2016,02,14,18,09,8.50
2016,02,14,18,10,8.50
2016,02,14,18,11,8.50
2016,02,14,18,12,8.50
2016,02,14,18,13,8.50
2016,02,14,18,14,8.50
2016,02,14,18,15,8.50
2016,02,14,18,16,8.50
2016,02,14,18,17,8.50
2016,02,14,18,18,8.50
2016,02,14,18,19,8.50
2016,02,14,18,20,8.50
2016,02,14,18,21,8.40
2016,02,14,18,22,8.40
2016,02,14,18,23,8.40
2016,02,14,18,24,8.40
2016,02,14,18,25,8.40
2016,02,14,18,26,8.40
2016,02,14,18,27,8.40
2016,02,14,18,28,8.40
2016,02,14,18,29,8.40
2016,02,14,18,30,8.40
2016,02,14,18,31,8.40
2016,02,14,18,32,8.40
2016,02,14,18,33,8.40
2016,02,14,18,34,8.40
2016,02,14,18,35,8.40
2016,02,14,18,36,8.40
2016,02,14,18,37,8.40
2016,02,14,18,38,8.30
2016,02,14,18,39,8.30
2016,02,14,18,40,8.30
2016,02,14,18,41,8.30
2016,02,14,18,42,8.30
2016,02,14,18,43,8.30
2016,02,14,18,44,8.30
2016,02,14,18,45,8.30
2016,02,14,18,46,8.30
2016,02,14,18,47,8.30
2016,02,14,18,48,8.30
2016,02,14,18,49,8.30
2016,02,14,18,50,8.30
2016,02,14,18,51,8.30
2016,02,14,18,52,8.30
2016,02,14,18,53,8.30
2016,02,14,18,54,8.30
2016,02,14,18,55,8.30
2016,02,14,18,56,8.30
2016,02,14,18,57,8.30
2016,02,14,18,58,8.30
2016,02,14,18,59,8.30
2016,02,14,19,00,8.30
2016,02,14,19,01,8.30
2016,02,14,19,02,8.30
2016,02,14,19,03,8.30
2016,02,14,19,04,8.30
2016,02,14,19,05,8.30
2016,02,14,19,06,8.30
2016,02,14,19,07,8.30
2016,02,14,19,08,8.30
2016,02,14,19,09,8.30
2016,02,14,19,10,8.30
2016,02,14,19,11,8.30
2016,02,14,19,12,8.30
2016,02,14,19,13,8.30
2016,02,14,19,14,8.30
2016,02,14,19,15,8.30
2016,02,14,19,16,8.30
2016,02,14,19,17,8.30
2016,02,14,19,18,8.30
2016,02,14,19,19,8.30
2016,02,14,19,20,8.20
2016,02,14,19,21,8.20
2016,02,14,19,22,8.20
2016,02,14,19,23,8.20
2016,02,14,19,24,8.20
2016,02,14,19,25,8.20
2016,02,14,19,26,8.20
2016,02,14,19,27,8.20
2016,02,14,19,28,8.20
2016,02,14,19,29,8.20
2016,02,14,19,30,8.20
2016,02,14,19,31,8.20
2016,02,14,19,32,8.20
2016,02,14,19,33,8.20
2016,02,14,19,34,8.20
2016,02,14,19,35,8.20
2016,02,14,19,36,8.20
2016,02,14,19,37,8.20
2016,02,14,19,38,8.20
2016,02,14,19,39,8.20
2016,02,14,19,40,8.20
2016,02,14,19,41,8.20
2016,02,14,19,42,8.20
2016,02,14,19,43,8.20
2016,02,14,19,44,8.10
2016,02,14,19,45,8.10
2016,02,14,19,46,8.10
2016,02,14,19,47,8.10
2016,02,14,19,48,8.10
2016,02,14,19,49,8.10
2016,02,14,19,50,8.10
2016,02,14,19,51,8.10
2016,02,14,19,52,8.10
2016,02,14,19,53,8.10
2016,02,14,19,54,8.10
2016,02,14,19,55,8.10
2016,02,14,19,56,8.10
2016,02,14,19,57,8.10
2016,02,14,19,58,8.10
2016,02,14,19,59,8.10
2016,02,14,20,00,8.10
2016,02,14,20,01,8.10
2016,02,14,20,02,8.10
2016,02,14,20,03,8.10
2016,02,14,20,04,8.10
2016,02,14,20,05,8.10
2016,02,14,20,06,8.10
2016,02,14,20,07,8.10
2016,02,14,20,08,8.10
2016,02,14,20,09,8.10
2016,02,14,20,10,8.10
2016,02,14,20,11,8.10
2016,02,14,20,12,8.10
2016,02,14,20,13,8.10
2016,02,14,20,14,8.10
2016,02,14,20,15,8.10
2016,02,14,20,16,8.00
2016,02,14,20,17,8.00
2016,02,14,20,18,8.00
2016,02,14,20,19,8.00
2016,02,14,20,20,8.00
2016,02,14,20,21,8.00
2016,02,14,20,22,8.00
2016,02,14,20,23,8.00
2016,02,14,20,24,8.00
2016,02,14,20,25,8.00
2016,02,14,20,26,8.00
2016,02,14,20,27,8.00
2016,02,14,20,28,8.00
2016,02,14,20,29,8.00
2016,02,14,20,30,7.90
2016,02,14,20,31,8.00
2016,02,14,20,32,8.00
2016,02,14,20,33,8.00
2016,02,14,20,34,7.90
2016,02,14,20,35,8.00
2016,02,14,20,36,7.90
2016,02,14,20,37,7.90
2016,02,14,20,38,7.90
2016,02,14,20,39,7.90
2016,02,14,20,40,7.90
2016,02,14,20,41,7.90
2016,02,14,20,42,7.90
2016,02,14,20,43,7.90
2016,02,14,20,44,7.90
2016,02,14,20,45,7.90
2016,02,14,20,46,7.90
2016,02,14,20,47,7.90
2016,02,14,20,48,7.90
2016,02,14,20,49,7.90
2016,02,14,20,50,7.90
2016,02,14,20,51,7.90
2016,02,14,20,52,7.90
2016,02,14,20,53,7.90
2016,02,14,20,54,7.90
2016,02,14,20,55,7.90
2016,02,14,20,56,7.90
2016,02,14,20,57,7.90
2016,02,14,20,58,7.90
2016,02,14,20,59,7.80
2016,02,14,21,00,7.80
2016,02,14,21,01,7.80
2016,02,14,21,02,7.80
2016,02,14,21,03,7.80
2016,02,14,21,04,7.80
2016,02,14,21,05,7.80
2016,02,14,21,06,7.80
2016,02,14,21,07,7.80
2016,02,14,21,08,7.80
2016,02,14,21,09,7.80
2016,02,14,21,10,7.80
2016,02,14,21,11,7.80
2016,02,14,21,12,7.80
2016,02,14,21,13,7.80
2016,02,14,21,14,7.80
2016,02,14,21,15,7.80
2016,02,14,21,16,7.80
2016,02,14,21,17,7.80
2016,02,14,21,18,7.80
2016,02,14,21,19,7.80
2016,02,14,21,20,7.80
2016,02,14,21,21,7.80
2016,02,14,21,22,7.80
2016,02,14,21,23,7.80
2016,02,14,21,24,7.80
2016,02,14,21,25,7.80
2016,02,14,21,26,7.80
2016,02,14,21,27,7.80
2016,02,14,21,28,7.80
2016,02,14,21,29,7.80
2016,02,14,21,30,7.80
2016,02,14,21,31,7.80
2016,02,14,21,32,7.80
2016,02,14,21,33,7.80
2016,02,14,21,34,7.80
2016,02,14,21,35,7.80
2016,02,14,21,36,7.80
2016,02,14,21,37,7.80
2016,02,14,21,38,7.80
2016,02,14,21,39,7.70
2016,02,14,21,40,7.70
2016,02,14,21,41,7.70
2016,02,14,21,42,7.70
2016,02,14,21,43,7.70
2016,02,14,21,44,7.70
2016,02,14,21,45,7.70
2016,02,14,21,46,7.70
2016,02,14,21,47,7.70
2016,02,14,21,48,7.70
2016,02,14,21,49,7.70
2016,02,14,21,50,7.70
2016,02,14,21,51,7.70
2016,02,14,21,52,7.70
2016,02,14,21,53,7.70
2016,02,14,21,54,7.70
2016,02,14,21,55,7.70
2016,02,14,21,56,7.70
2016,02,14,21,57,7.70
2016,02,14,21,58,7.70
2016,02,14,21,59,7.70
2016,02,14,22,00,7.70
2016,02,14,22,01,7.70
2016,02,14,22,02,7.70
2016,02,14,22,03,7.70
2016,02,14,22,04,7.70
2016,02,14,22,05,7.60
2016,02,14,22,06,7.70
2016,02,14,22,07,7.70
2016,02,14,22,08,7.60
2016,02,14,22,09,7.60
2016,02,14,22,10,7.60
2016,02,14,22,11,7.60
2016,02,14,22,12,7.60
2016,02,14,22,13,7.60
2016,02,14,22,14,7.60
2016,02,14,22,15,7.60
2016,02,14,22,16,7.60
2016,02,14,22,17,7.60
2016,02,14,22,18,7.60
2016,02,14,22,19,7.60
2016,02,14,22,20,7.60
2016,02,14,22,21,7.60
2016,02,14,22,22,7.60
2016,02,14,22,23,7.60
2016,02,14,22,24,7.60
2016,02,14,22,25,7.60
2016,02,14,22,26,7.60
2016,02,14,22,27,7.60
2016,02,14,22,28,7.60
2016,02,14,22,29,7.60
2016,02,14,22,30,7.60
2016,02,14,22,31,7.60
2016,02,14,22,32,7.60
2016,02,14,22,33,7.60
2016,02,14,22,34,7.60
2016,02,14,22,35,7.60
2016,02,14,22,36,7.60
2016,02,14,22,37,7.60
2016,02,14,22,38,7.60
2016,02,14,22,39,7.60
2016,02,14,22,40,7.50
2016,02,14,22,41,7.50
2016,02,14,22,42,7.50
2016,02,14,22,43,7.50
2016,02,14,22,44,7.50
2016,02,14,22,45,7.50
2016,02,14,22,46,7.50
2016,02,14,22,47,7.50
2016,02,14,22,48,7.50
2016,02,14,22,49,7.50
2016,02,14,22,50,7.50
2016,02,14,22,51,7.50
2016,02,14,22,52,7.50
2016,02,14,22,53,7.50
2016,02,14,22,54,7.50
2016,02,14,22,55,7.50
2016,02,14,22,56,7.50
2016,02,14,22,57,7.50
2016,02,14,22,58,7.40
2016,02,14,22,59,7.40
2016,02,14,23,00,7.40
2016,02,14,23,01,7.40
2016,02,14,23,02,7.40
2016,02,14,23,03,7.40
2016,02,14,23,04,7.40
2016,02,14,23,05,7.40
2016,02,14,23,06,7.40
2016,02,14,23,07,7.40
2016,02,14,23,08,7.40
2016,02,14,23,09,7.40
2016,02,14,23,10,7.40
2016,02,14,23,11,7.40
2016,02,14,23,12,7.40
2016,02,14,23,13,7.40
2016,02,14,23,14,7.40
2016,02,14,23,15,7.40
2016,02,14,23,16,7.40
2016,02,14,23,17,7.40
2016,02,14,23,18,7.40
2016,02,14,23,19,7.40
2016,02,14,23,20,7.40
2016,02,14,23,21,7.40
2016,02,14,23,22,7.40
2016,02,14,23,23,7.40
2016,02,14,23,24,7.30
2016,02,14,23,25,7.30
2016,02,14,23,26,7.30
2016,02,14,23,27,7.30
2016,02,14,23,28,7.30
2016,02,14,23,29,7.30
2016,02,14,23,30,7.30
2016,02,14,23,31,7.30
2016,02,14,23,32,7.30
2016,02,14,23,33,7.30
2016,02,14,23,34,7.30
2016,02,14,23,35,7.30
2016,02,14,23,36,7.30
2016,02,14,23,37,7.30
2016,02,14,23,38,7.30
2016,02,14,23,39,7.30
2016,02,14,23,40,7.30
2016,02,14,23,41,7.30
2016,02,14,23,42,7.30
2016,02,14,23,43,7.30
2016,02,14,23,44,7.30
2016,02,14,23,45,7.30
2016,02,14,23,46,7.30
2016,02,14,23,47,7.30
2016,02,14,23,48,7.30
2016,02,14,23,49,7.30
2016,02,14,23,50,7.30
2016,02,14,23,51,7.30
2016,02,14,23,52,7.30
2016,02,14,23,53,7.20
2016,02,14,23,54,7.20
2016,02,14,23,55,7.20
2016,02,14,23,56,7.20
2016,02,14,23,57,7.20
2016,02,14,23,58,7.20
2016,02,14,23,59,7.20
